OneWeb SL0504

operational
NORAD ID: 54122 Int'l Des: 2022-138 Owner: ONEWEBN Country: UK Constellation: oneweb
LEOCIRCULARPOLARONEWEB_TYPE

OneWeb SL0504について

説明を読み込み中...

リアルタイム位置

3D地球を読み込み中...

次回通過

高度履歴

Altitude vs Time

uPlot chart will show altitude changes over time

軌道要素

1 54122U 22138K 25353.89737031 .00000066 00000-0 13245-3 0 9996
2 54122 87.9207 340.6361 0002086 84.7290 275.4081 13.19724824153184
Epoch: Dec 19, 2025 • Age: 8 hours

現在のステータス

高度 1197.1 km
速度 7.26 km/s
衛星直下点 74.33°N, 16.11°W
打ち上げ日 Oct 22, 2022
運用期間 3.1 years
タイプ internet

技術仕様

分類 Payload
質量 148.00 kg
乾燥質量 140.00 kg
総質量 148.00 kg
長さ 1.30 m
直径 1.00 m
スパン 5.00 m
形状 Trapezoid+2 pan
製造者 ONEWUS
バスタイプ ARROW
フェーズステータス In Orbit
所有者/国 ONEWEBN/UK

大規模コンステレーション

Loading constellations...